星链-5700 (STARLINK-5700 )

导读 | 星芒AI

STARLINK-5700 是 SpaceX Starlink 卫星互联网项目中的一个组成部分,属于“星链”计划中部署的数千颗低轨卫星之一。该卫星旨在为全球用户提供高速、低延迟的宽带互联网服务,尤其服务于网络基础设施薄弱的地区。它运行在约 550 公里的低地球轨道,采用先进通信技术,支持全球范围的互联网接入。STARLINK-5700 的部署有助于提升 Starlink 网络的覆盖密度和连接稳定性,是实现 SpaceX 构建全球卫星互联网愿景的重要一环。

基本信息
目录编号:
55607
目录名称:
STARLINK-5700
国际标识:
2023-020AQ
轨道中心:
EARTH
卫星名称:
星链-5700
卫星全名:
星链-5700 (STARLINK-5700 )
卫星状态:
在轨 (已飞行996 天)
发射日期:
2023-02-12 UTC
国别 :
美国 (US)
星等 :
--
轨道信息
数据来源 国际轨道数据
星历时间: 2025-11-04T14:55:54+0800
5小时前
查看轨道信息
半长轴: 6937.187km
偏心率: 0.000175
轨道倾角: 43.005°
近地点辐角 269.139°
升交点赤经 313.243°
平近点角 90.925°
近地点: 557.837km
远地点: 560.267km
周期: 95.837分钟
每日圈数: 15.025456
详细信息
固有亮度:
5
最大亮度:
2.5
卫星平台:
Starlink v1.5
覆盖范围:
全球
运营商:
太空探索技术公司
运营商所在国:
美国
制造商(研发单位):
太空探索技术公司
制造商所在国:
美国
使用方式:
暂无
卫星简介
星链(Starlink)计划是由太空探索技术公司(SpaceX)提出的一个巨型低轨卫星互联网星座项目,计划在2019年至2024年间在太空搭建由约1.2万颗卫星组成的“星链”网络,其中1584颗将部署在地球上空550千米处的近地轨道,并从2020年开始工作。该卫星仍在工作。
2D轨道图
3D轨道图
轨道高度分析图
轨道倾角分析图
轨道综合分析图
查看轨道综合分析图